1499803200.91,10792,19.75,74076.8,5.11,-15.67,-11.93,0,*7A
1499803202.15,10793,19.75,74074.5,5.11,-14.93,-11.77,0,*7B
1499803203.43,10794,19.75,74072.5,5.09,-14.51,-12.11,0,*78
1499803204.71,10795,19.75,74074.5,5.09,-13.97,-12.79,0,*7A
1499803205.98,10796,19.75,74074.0,5.09,-13.79,-13.37,0,*72
1499803207.21,10797,19.75,74072.0,5.07,-13.79,-13.55,0,*79
1499803208.43,10798,19.75,74074.5,5.07,-13.87,-13.65,0,*74
1499803209.68,10799,19.75,74074.3,5.09,-13.97,-13.43,0,*7E
1499803210.94,10800,19.75,74076.5,5.09,-13.97,-12.97,0,*79
1499803212.19,10801,19.75,74076.0,5.07,-13.87,-12.53,0,*7F
1499803213.39,10802,19.75,74076.5,5.07,-13.65,-12.03,0,*75
1499803214.65,10803,19.75,74078.5,5.09,-13.51,-11.67,0,*7C
1499803215.9,10804,19.75,74078.3,5.09,-13.29,-11.11,0,*75
1499803217.18,10805,19.75,74080.3,5.09,-13.37,-10.75,0,*78
1499803218.38,10806,19.75,74080.3,5.07,-13.15,-10.31,0,*75
1499803219.58,10807,19.75,74082.8,5.07,-13.11,-10.01,0,*73
1499803220.83,10808,19.75,74076.3,5.07,-12.65,-9.49,0,*4A
1499803222.02,10809,19.75,74078.8,5.07,-12.29,-9.23,0,*4F
1499803223.27,10810,19.75,74078.0,5.07,-11.85,-9.11,0,*43
1499803224.49,10811,19.75,74076.0,5.07,-11.59,-9.05,0,*46
1499803225.68,10812,19.75,74078.0,5.07,-11.19,-9.05,0,*41
1499803226.89,10813,19.75,74076.3,5.09,-10.89,-9.19,0,*4B
1499803228.14,10814,19.75,74080.8,5.07,-10.63,-9.41,0,*4B
1499803229.33,10815,19.75,74082.0,5.07,-10.49,-9.89,0,*46
1499803230.54,10816,19.75,74078.0,5.07,-10.31,-10.01,0,*72
1499803231.74,10817,19.75,74076.5,5.03,-10.23,-10.49,0,*78
1499803232.97,10818,19.75,74078.5,5.07,-10.19,-10.71,0,*71
1499803234.18,10819,19.75,74076.8,5.07,-10.19,-10.97,0,*78
1499803235.37,10820,19.75,74076.8,5.07,-10.27,-11.19,0,*78
1499803236.58,10821,19.75,74072.3,5.03,-10.31,-11.45,0,*73
1499803237.83,10822,19.75,74080.3,5.03,-10.41,-11.59,0,*7A
1499803239.05,10823,19.75,74078.0,5.03,-10.49,-11.59,0,*73
1499803240.25,10824,19.75,74076.8,5.07,-10.57,-11.45,0,*72
1499803241.5,10825,19.75,74076.3,5.03,-10.75,-11.07,0,*71
1499803242.73,10826,19.75,74070.8,5.01,-10.89,-10.49,0,*78
1499803243.97,10827,19.75,74074.3,5.01,-10.79,-9.67,0,*42
1499803245.2,10828,19.75,74072.8,5.03,-10.67,-8.89,0,*41
1499803246.44,10829,19.75,74070.3,5.01,-10.19,-7.95,0,*49
1499803247.65,10830,19.75,74066.8,5.03,-9.57,-7.15,0,*79
1499803248.87,10831,19.75,74068.3,5.03,-9.15,-6.73,0,*7F
1499803250.06,10832,19.75,74070.0,5.03,-8.33,-6.59,0,*71
1499803251.26,10833,19.75,74070.5,5.03,-7.83,-6.81,0,*71
1499803252.47,10834,19.75,74070.0,5.03,-7.23,-7.39,0,*7E
1499803253.68,10835,19.75,74070.5,5.01,-6.89,-8.45,0,*78
1499803254.89,10836,19.75,74072.8,5.01,-6.69,-9.97,0,*7B
1499803256.11,10837,19.75,74074.8,5.03,-6.73,-11.51,0,*40
1499803257.36,10838,19.75,74078.8,5.01,-6.89,-12.75,0,*4D
1499803258.6,10839,19.75,74076.5,5.03,-7.27,-14.01,0,*4E
1499803259.85,10840,19.75,74082.5,5.01,-8.21,-15.21,0,*48
1499803261.08,10841,19.75,74076.8,5.03,-9.01,-16.17,0,*4E
1499803262.29,10842,19.75,74076.5,5.01,-9.93,-16.93,0,*48
1499803263.51,10843,19.75,74076.8,5.03,-10.93,-17.41,0,*7D
1499803264.77,10844,19.75,74072.0,5.01,-11.97,-17.83,0,*73
1499803265.99,10845,19.75,74070.8,5.03,-12.75,-17.73,0,*70
1499803267.22,10846,19.75,74072.3,5.01,-13.69,-17.83,0,*72
1499803268.45,10847,19.75,74068.8,5.01,-14.29,-17.87,0,*74
1499803269.67,10848,19.75,74074.8,5.01,-14.61,-17.73,0,*7C
1499803270.92,10849,19.75,74068.0,5.01,-15.15,-17.55,0,*7B
1499803272.15,10850,19.75,74070.3,5.03,-15.49,-17.11,0,*78
1499803273.4,10851,19.75,74068.5,4.99,-15.81,-16.69,0,*71
1499803274.68,10852,19.75,74070.3,5.01,-15.89,-15.81,0,*7F
1499803275.92,10853,19.75,74070.8,4.99,-16.09,-15.25,0,*7B
1499803277.15,10854,19.75,74074.0,4.99,-15.85,-14.33,0,*7D
1499803278.35,10855,19.75,74074.5,4.99,-15.53,-13.65,0,*73
1499803279.58,10856,19.75,74068.5,4.99,-14.97,-13.19,0,*72
1499803280.79,10857,19.75,74072.8,4.97,-14.65,-13.07,0,*7F
1499803282.03,10858,19.75,74072.5,4.97,-14.23,-12.97,0,*7A
1499803283.23,10859,19.75,74074.5,4.99,-13.93,-13.19,0,*7E
1499803284.49,10860,19.75,74074.8,4.97,-13.83,-13.51,0,*77
1499803285.71,10861,19.75,74072.8,4.99,-13.73,-13.79,0,*7D
1499803286.94,10862,19.75,74070.0,4.97,-13.51,-14.15,0,*7D
1499803288.19,10863,19.75,74072.5,4.97,-13.65,-14.79,0,*71
1499803289.45,10864,19.75,74076.0,4.97,-13.83,-15.53,0,*77
1499803290.71,10865,19.75,74072.0,4.97,-14.01,-15.99,0,*7D
1499803291.96,10866,19.75,74072.5,4.97,-14.29,-16.31,0,*75
1499803293.17,10867,19.75,74074.0,4.97,-14.65,-16.93,0,*74
1499803294.41,10868,19.75,74068.8,4.97,-15.01,-17.49,0,*7E
1499803295.64,10869,19.75,74072.0,4.95,-15.29,-17.79,0,*74
1499803296.86,10870,19.75,74072.3,4.95,-15.81,-18.25,0,*78
1499803298.11,10871,19.75,74076.8,4.95,-16.27,-18.35,0,*77
1499803299.37,10872,19.75,74072.3,4.97,-16.55,-18.35,0,*73
1499803300.62,10873,19.75,74074.0,4.97,-17.03,-18.41,0,*73
1499803301.82,10874,19.75,74074.8,4.95,-17.35,-18.49,0,*7B
1499803303.02,10875,19.75,74070.3,4.95,-17.49,-18.41,0,*79
1499803304.28,10876,19.75,74072.8,4.93,-17.83,-18.31,0,*7D
1499803305.54,10877,19.75,74072.8,4.93,-17.79,-17.83,0,*7F
1499803306.82,10878,19.75,74072.5,4.93,-17.63,-17.55,0,*70
1499803308.07,10879,19.75,74078.5,4.93,-18.25,-17.25,0,*7B
1499803309.3,10880,19.75,74078.5,4.93,-18.25,-16.59,0,*77
1499803310.54,10881,19.75,74076.0,4.93,-18.41,-15.95,0,*77
1499803311.77,10882,19.75,74076.0,4.93,-18.45,-15.15,0,*78
1499803313.02,10883,19.75,74074.8,4.93,-18.45,-13.87,0,*74
1499803314.3,10884,19.75,74074.5,4.93,-18.01,-12.61,0,*7A
1499803315.58,10885,19.75,74074.3,4.93,-17.25,-11.07,0,*71
1499803316.84,10886,19.75,74076.5,4.93,-15.95,-9.53,0,*43
1499803318.07,10887,19.75,74074.3,4.93,-14.93,-8.67,0,*43
1499803319.35,10888,19.75,74076.3,4.93,-14.01,-8.03,0,*45
1499803320.62,10889,19.75,74076.5,4.93,-12.83,-7.91,0,*4C
1499803321.86,10890,19.75,74068.5,4.93,-11.73,-8.29,0,*44
1499803323.08,10891,19.75,74070.3,4.91,-11.15,-8.59,0,*40
1499803324.34,10892,19.75,74070.3,4.91,-10.79,-9.15,0,*41
1499803325.55,10893,19.75,74068.5,4.89,-10.85,-9.37,0,*4A
1499803326.8,10894,19.75,74066.5,4.91,-10.63,-8.85,0,*44
1499803328.04,10895,19.75,74064.8,4.91,-10.09,-8.07,0,*43
1499803329.29,10896,19.75,74068.0,4.91,-9.57,-7.01,0,*7A
1499803330.51,10897,19.75,74070.8,4.91,-8.97,-6.55,0,*76
1499803331.72,10898,19.75,74066.0,4.93,-8.45,-6.01,0,*75
1499803332.95,10899,19.75,74060.8,4.93,-7.83,-5.51,0,*77
1499803334.17,10900,19.75,74058.0,4.93,-7.23,-5.39,0,*72
1499803335.41,10901,19.75,74056.0,4.91,-6.93,-5.43,0,*76
1499803336.63,10902,19.75,74056.8,4.91,-6.69,-6.23,0,*75
1499803337.86,10903,19.75,74058.3,4.93,-6.59,-6.81,0,*7D
1499803339.1,10904,19.75,74060.8,4.93,-6.69,-7.27,0,*74
1499803340.34,10905,19.75,74060.8,4.93,-6.59,-8.03,0,*7F
1499803341.56,10906,19.75,74058.8,4.93,-6.31,-8.75,0,*73
1499803342.8,10907,19.75,74060.5,4.91,-6.35,-9.83,0,*7C
1499803344.02,10908,19.75,74064.5,4.91,-6.81,-11.01,0,*4F
1499803345.27,10909,19.75,74062.0,4.91,-7.73,-12.47,0,*43
1499803346.51,10910,19.75,74060.3,4.91,-8.71,-13.87,0,*4B
1499803347.76,10911,19.75,74064.8,4.91,-9.27,-14.83,0,*4B
1499803348.97,10912,19.75,74068.8,4.91,-10.09,-15.63,0,*73
1499803350.24,10913,19.75,74070.0,4.91,-10.75,-16.23,0,*7E
1499803351.53,10914,19.75,74068.5,4.93,-11.63,-16.65,0,*7F
1499803352.78,10915,19.75,74074.3,4.93,-12.35,-16.93,0,*77
1499803354.06,10916,19.75,74072.8,4.93,-11.51,-15.85,0,*71
1499803355.34,10917,19.75,74072.0,4.91,-13.83,-17.63,0,*75
1499803356.62,10918,19.75,74070.8,4.93,-14.01,-17.41,0,*75
1499803357.88,10919,19.75,74074.3,4.93,-13.29,-16.59,0,*71
1499803359.17,10920,19.75,74076.5,4.93,-14.01,-17.41,0,*7E
1499803360.42,10921,19.75,74072.0,4.93,-15.95,-18.59,0,*75
1499803361.67,10922,19.75,74074.0,4.93,-16.45,-18.55,0,*74
1499803362.92,10923,19.75,74076.0,4.93,-16.59,-18.55,0,*78
1499803364.16,10924,19.75,74076.8,4.93,-16.79,-18.45,0,*7C
1499803365.44,10925,19.75,74076.0,4.93,-17.11,-18.31,0,*71
1499803366.69,10926,19.75,74070.3,4.91,-17.35,-18.01,0,*75
1499803367.91,10927,19.75,74070.8,4.89,-17.55,-17.87,0,*7A
1499803369.16,10928,19.75,74070.8,4.89,-17.59,-17.59,0,*7A
1499803370.35,10929,19.75,74064.8,4.89,-17.73,-17.31,0,*7D
1499803371.57,10930,19.75,74064.0,4.91,-17.69,-16.93,0,*7E
1499803372.76,10931,19.75,74062.0,4.89,-17.73,-16.41,0,*72
1499803374.01,10932,19.75,74066.0,4.89,-17.55,-15.89,0,*72
1499803375.26,10933,19.75,74060.5,4.89,-17.41,-15.21,0,*74
1499803376.48,10934,19.75,74064.3,4.89,-17.17,-14.37,0,*76
1499803377.67,10935,19.75,74066.5,4.89,-16.97,-13.65,0,*7E
1499803378.92,10936,19.75,74064.5,4.89,-16.65,-12.53,0,*74
1499803380.14,10937,19.75,74070.0,4.89,-15.95,-11.55,0,*7C
1499803381.37,10938,19.75,74066.8,4.89,-15.11,-10.41,0,*7B
1499803382.64,10939,19.75,74066.8,4.91,-14.43,-9.37,0,*4C
1499803383.85,10940,19.75,74068.8,4.89,-14.05,-8.71,0,*4A
1499803385.06,10941,19.75,74068.3,4.89,-13.79,-8.25,0,*46
1499803386.28,10942,19.75,74068.8,4.89,-13.47,-7.57,0,*42
1499803387.47,10943,19.75,74064.5,4.89,-13.19,-6.85,0,*46
1499803388.68,10944,19.75,74062.3,4.89,-12.65,-5.97,0,*4B
1499803389.93,10945,19.75,74060.3,4.89,-11.89,-5.03,0,*46
1499803391.17,10946,19.75,74058.8,4.87,-10.71,-3.83,0,*43
1499803392.41,10947,19.75,74056.8,4.87,-9.61,-3.07,0,*77
1499803393.62,10948,19.75,74058.5,4.85,-8.67,-2.63,0,*7E
1499803394.86,10949,19.75,74060.0,4.87,-7.61,-2.43,0,*76
1499803396.08,10950,19.75,74056.8,4.87,-6.89,-2.43,0,*79
1499803397.29,10951,19.75,74062.5,4.87,-6.13,-2.43,0,*7B
1499803398.51,10952,19.75,74058.5,4.85,-5.47,-2.51,0,*7B
1499803399.77,10953,19.75,74060.3,4.87,-4.85,-2.63,0,*76
1499803401.02,10954,19.75,74062.8,4.87,-4.57,-2.75,0,*79
1499803402.23,10955,19.75,74062.0,4.87,-4.21,-2.79,0,*75
1499803403.45,10956,19.75,74060.3,4.89,-3.79,-2.71,0,*7A
1499803404.72,10957,19.75,74062.8,4.87,-3.43,-2.67,0,*7B
1499803405.94,10958,19.75,74064.3,4.87,-3.07,-2.87,0,*7A
1499803407.12,10959,19.75,74064.5,4.89,-3.03,-3.39,0,*75
1499803408.34,10960,19.75,74064.3,4.87,-3.31,-4.33,0,*7D
1499803409.55,10961,19.75,74064.5,4.85,-3.55,-5.51,0,*79
1499803410.78,10962,19.75,74062.0,4.87,-3.91,-6.89,0,*76
1499803411.95,10963,19.75,74064.5,4.89,-4.53,-8.17,0,*79
1499803413.22,10964,19.75,74064.0,4.87,-5.23,-9.11,0,*71
1499803414.44,10965,19.75,74062.5,4.89,-5.69,-9.71,0,*76
1499803415.65,10966,19.75,74062.3,4.89,-6.27,-10.15,0,*46
1499803416.87,10967,19.75,74060.8,4.89,-7.01,-10.57,0,*44
1499803418.11,10968,19.75,74064.5,4.89,-7.99,-11.55,0,*49
1499803419.35,10969,19.75,74064.3,4.89,-8.81,-11.93,0,*44
1499803420.59,10970,19.75,74060.5,4.89,-9.45,-12.53,0,*4A
1499803421.79,10971,19.75,74066.3,4.89,-10.01,-13.23,0,*75
1499803423.03,10972,19.75,74064.3,4.89,-10.71,-14.05,0,*72
1499803424.31,10973,19.75,74068.3,4.87,-11.37,-14.93,0,*71
1499803425.59,10974,19.75,74074.3,4.87,-11.73,-15.39,0,*77
1499803426.82,10975,19.75,74076.0,4.87,-12.21,-15.95,0,*74
1499803428.1,10976,19.75,74072.0,4.87,-12.53,-16.27,0,*78
1499803429.33,10977,19.75,74072.5,4.87,-12.97,-16.41,0,*71
1499803430.55,10978,19.75,74078.3,4.87,-13.43,-16.89,0,*72
1499803431.77,10979,19.75,74076.8,4.87,-14.29,-17.73,0,*7C
1499803433.0,10980,19.75,74072.3,4.87,-15.15,-18.07,0,*78
1499803434.23,10981,19.75,74074.3,4.87,-15.67,-18.49,0,*76
1499803435.45,10982,19.75,74064.5,4.85,-15.81,-18.65,0,*71
1499803436.69,10983,19.75,74072.5,4.87,-15.81,-18.79,0,*7F
1499803437.91,10984,19.75,74072.0,4.85,-15.85,-18.79,0,*7E
1499803439.15,10985,19.75,74062.0,4.87,-16.17,-18.99,0,*7B
1499803440.37,10986,19.75,74060.5,4.85,-16.69,-18.99,0,*73
1499803441.56,10987,19.75,74062.0,4.85,-16.93,-19.03,0,*75
1499803442.78,10988,19.75,74064.8,4.85,-17.17,-19.03,0,*77
1499803444.0,10989,19.75,74066.5,4.85,-17.21,-19.03,0,*73
1499803445.23,10990,19.75,74060.5,4.85,-17.45,-19.13,0,*78
1499803446.42,10991,19.75,74058.8,4.85,-17.49,-19.03,0,*74
1499803447.64,10992,19.75,74056.8,4.79,-17.83,-19.07,0,*76
1499803448.86,10993,19.75,74060.3,4.85,-17.93,-19.13,0,*70
1499803450.08,10994,19.75,74060.3,4.81,-18.01,-19.07,0,*72
1499803451.3,10995,19.75,74062.0,4.79,-18.17,-19.07,0,*73
1499803452.5,10996,19.75,74064.3,4.81,-18.25,-19.17,0,*77
1499803453.71,10997,19.75,74060.5,4.79,-18.41,-19.07,0,*72
1499803454.96,10998,19.75,74062.8,4.79,-18.55,-19.07,0,*78
1499803456.23,10999,19.75,74064.0,4.79,-18.59,-19.23,0,*73
1499803457.46,11000,19.75,74062.3,4.79,-18.69,-19.17,0,*7F
1499803458.7,11001,19.75,74056.5,4.79,-18.73,-19.23,0,*72
1499803459.95,11002,19.75,74058.8,4.79,-18.83,-19.23,0,*7E
1499803461.2,11003,19.75,74056.5,4.79,-18.83,-19.23,0,*7F
1499803462.45,11004,19.75,74060.0,4.79,-18.83,-19.23,0,*78
1499803463.68,11005,19.75,74056.5,4.79,-18.83,-19.17,0,*7E
1499803464.92,11006,19.75,74060.3,4.79,-18.83,-19.23,0,*7A
1499803466.17,11007,19.75,74062.3,4.77,-18.89,-19.23,0,*7F
1499803467.39,11008,19.75,74062.0,4.77,-18.79,-19.23,0,*7F
1499803468.64,11009,19.75,74054.3,4.77,-18.89,-19.27,0,*75
1499803469.89,11010,19.75,74050.5,4.77,-18.89,-19.23,0,*79
1499803471.11,11011,19.75,74054.8,4.77,-18.79,-19.23,0,*77
1499803472.33,11012,19.75,74058.5,4.77,-18.59,-19.07,0,*70
1499803473.58,11013,19.75,74058.0,4.75,-18.69,-19.27,0,*72
1499803474.78,11014,19.75,74062.5,4.77,-18.65,-19.13,0,*7C
1499803476.03,11015,19.75,74060.8,4.75,-18.55,-19.13,0,*7C
1499803477.26,11016,19.75,74066.5,4.75,-18.65,-19.13,0,*7C
1499803478.49,11017,19.75,74064.3,4.75,-18.69,-19.13,0,*71
1499803479.72,11018,19.75,74062.3,4.75,-18.83,-19.17,0,*7E
1499803480.95,11019,19.75,74060.8,4.75,-18.69,-19.13,0,*7F
1499803482.18,11020,19.75,74062.8,4.75,-18.69,-19.13,0,*75
1499803483.41,11021,19.75,74060.3,4.75,-18.79,-19.13,0,*75
1499803484.66,11022,19.75,74060.3,4.75,-18.83,-19.27,0,*74
1499803485.89,11023,19.75,74060.8,4.75,-18.69,-19.17,0,*72
1499803487.09,11024,19.75,74060.8,4.73,-18.69,-18.99,0,*74
1499803488.29,11025,19.75,74058.8,4.73,-18.79,-19.17,0,*73
1499803489.49,11026,19.75,74064.5,4.73,-18.79,-19.13,0,*74
1499803490.69,11027,19.75,74060.8,4.73,-18.69,-19.13,0,*74
1499803491.91,11028,19.75,74060.5,4.75,-18.69,-18.99,0,*7E
1499803493.12,11029,19.75,74060.8,4.73,-18.69,-19.13,0,*7A
1499803494.32,11030,19.75,74062.0,4.73,-18.69,-19.13,0,*72
1499803495.52,11031,19.75,74052.5,4.73,-18.79,-19.13,0,*72
1499803496.72,11032,19.75,74058.0,4.73,-18.79,-18.99,0,*72
1499803497.91,11033,19.75,74056.0,4.73,-18.69,-18.99,0,*72
1499803499.11,11034,19.75,74048.5,4.73,-18.79,-19.13,0,*77
1499803500.32,11035,19.75,74058.0,4.73,-18.79,-19.13,0,*76
1499803501.52,11036,19.75,74058.5,4.73,-18.79,-19.13,0,*75
1499803502.71,11037,19.75,74058.0,4.73,-18.69,-18.99,0,*76
1499803503.92,11038,19.75,74060.0,4.73,-18.65,-19.13,0,*76
1499803505.12,11039,19.75,74056.0,4.73,-18.69,-19.13,0,*7B
1499803506.32,11040,19.75,74060.3,4.73,-18.69,-19.13,0,*75
1499803507.55,11041,19.75,74056.3,4.75,-18.69,-19.13,0,*72
1499803508.78,11042,19.75,74056.5,4.73,-18.69,-18.93,0,*7E
1499803510.0,11043,19.75,74058.3,4.73,-18.69,-18.93,0,*7F
1499803511.23,11044,19.75,74054.5,4.73,-18.69,-18.93,0,*78
1499803512.42,11045,19.75,74052.3,4.73,-18.69,-18.83,0,*78
1499803513.62,11046,19.75,74054.5,4.73,-18.69,-18.83,0,*7B
1499803514.82,11047,19.75,74064.0,4.73,-18.69,-18.83,0,*7A
1499803516.01,11048,19.75,74058.3,4.73,-18.69,-18.83,0,*75
1499803517.23,11049,19.75,74064.0,4.73,-18.55,-18.65,0,*73
1499803518.43,11050,19.75,74064.0,4.73,-18.65,-18.69,0,*74
1499803519.63,11051,19.75,74060.3,4.73,-18.65,-18.69,0,*75
1499803520.83,11052,19.75,74054.0,4.73,-18.65,-18.65,0,*7A
1499803522.07,11053,19.75,74052.5,4.73,-18.55,-18.55,0,*7B
1499803523.3,11054,19.75,74050.0,4.73,-18.55,-18.49,0,*71
1499803524.49,11055,19.75,74048.3,4.73,-18.41,-18.49,0,*75
1499803525.72,11056,19.75,74058.0,4.73,-18.41,-18.55,0,*7B
1499803526.92,11057,19.75,74060.0,4.73,-18.25,-18.65,0,*7B
1499803528.11,11058,19.75,74058.5,4.73,-18.41,-18.79,0,*7B
1499803529.34,11059,19.75,74056.5,4.73,-18.41,-18.93,0,*7E
1499803530.56,11060,19.75,74058.8,4.73,-18.41,-18.93,0,*74
1499803531.79,11061,19.75,74054.5,4.69,-18.55,-19.17,0,*76
1499803532.98,11062,19.75,74054.0,4.73,-18.41,-18.99,0,*7C
1499803534.18,11063,19.75,74056.5,4.73,-18.49,-19.13,0,*76
1499803535.38,11064,19.75,74060.5,4.73,-18.07,-18.79,0,*76
1499803536.58,11065,19.75,74060.3,4.73,-18.41,-19.13,0,*78
1499803537.8,11066,19.75,74064.0,4.73,-18.11,-18.93,0,*77
1499803538.99,11067,19.75,74060.5,4.73,-18.41,-18.99,0,*79
1499803540.19,11068,19.75,74056.8,4.73,-18.49,-19.13,0,*7D
1499803541.39,11069,19.75,74058.5,4.73,-18.65,-19.13,0,*72
1499803542.62,11070,19.75,74062.3,4.73,-18.49,-18.93,0,*7D
1499803543.84,11071,19.75,74062.5,4.73,-18.49,-18.93,0,*7C
1499803545.04,11072,19.75,74062.3,4.69,-18.65,-19.13,0,*73
1499803546.26,11073,19.75,74062.0,4.69,-18.59,-19.17,0,*79
1499803547.49,11074,19.75,74058.5,4.69,-18.59,-19.17,0,*7E
1499803548.68,11075,19.75,74054.8,4.73,-18.65,-18.99,0,*7C
1499803549.88,11076,19.75,74058.5,4.73,-18.65,-19.13,0,*7C
1499803551.08,11077,19.75,74054.5,4.73,-18.65,-19.13,0,*7D
1499803552.31,11078,19.75,74058.5,4.73,-18.65,-19.27,0,*75
1499803553.51,11079,19.75,74060.5,4.73,-18.65,-19.17,0,*77
1499803554.71,11080,19.75,74062.3,4.73,-18.65,-19.17,0,*71
1499803555.91,11081,19.75,74054.0,4.73,-18.65,-19.17,0,*70
1499803557.13,11082,19.75,74054.0,4.69,-18.69,-19.23,0,*73
1499803558.36,11083,19.75,74050.0,4.69,-18.69,-19.31,0,*71
1499803559.56,11084,19.75,74052.8,4.69,-18.65,-19.17,0,*7E
1499803560.8,11085,19.75,74054.8,4.69,-18.55,-18.89,0,*7A
1499803562.02,11086,19.75,74056.5,4.69,-18.59,-18.99,0,*74
1499803563.21,11087,19.75,74056.5,4.69,-18.69,-18.99,0,*76
1499803564.43,11088,19.75,74056.5,4.69,-18.69,-18.89,0,*78
1499803565.63,11089,19.75,74058.8,4.73,-18.65,-18.69,0,*70
1499803566.86,11090,19.75,74058.3,4.73,-18.69,-18.55,0,*7B
1499803568.05,11091,19.75,74058.0,4.69,-18.73,-18.41,0,*7F
1499803569.27,11092,19.75,74054.5,4.69,-18.59,-18.25,0,*76
1499803570.49,11093,19.75,74062.0,4.69,-18.45,-17.93,0,*78
1499803571.74,11094,19.75,74064.5,4.69,-18.31,-17.63,0,*73
1499803572.95,11095,19.75,74068.3,4.69,-18.41,-17.35,0,*76
1499803574.2,11096,19.75,74068.8,4.69,-18.55,-17.11,0,*76
1499803575.45,11097,19.75,74070.3,4.67,-18.49,-16.69,0,*7A
1499803576.72,11098,19.75,74066.8,4.67,-18.59,-16.23,0,*7A
1499803577.95,11099,19.75,74070.0,4.69,-18.45,-15.57,0,*78
1499803579.22,11100,19.75,74074.3,4.67,-18.59,-14.93,0,*73
1499803580.42,11101,19.75,74070.8,4.69,-18.45,-14.11,0,*7B
1499803581.61,11102,19.75,74070.5,4.69,-18.45,-13.43,0,*78
1499803582.84,11103,19.75,74066.5,4.69,-18.49,-12.53,0,*75
1499803584.12,11104,19.75,74068.0,4.67,-18.31,-11.37,0,*72
1499803585.34,11105,19.75,74068.5,4.67,-17.69,-10.09,0,*7D
1499803586.56,11106,19.75,74064.8,4.67,-16.97,-8.89,0,*4F
1499803587.81,11107,19.75,74062.5,4.67,-16.09,-7.53,0,*41
1499803589.02,11108,19.75,74068.3,4.69,-15.11,-6.27,0,*48
1499803590.25,11109,19.75,74068.3,4.69,-14.01,-4.99,0,*4E
1499803591.47,11110,19.75,74066.3,4.67,-12.93,-4.13,0,*47
1499803592.72,11111,19.75,74064.8,4.67,-11.93,-3.27,0,*45
1499803593.95,11112,19.75,74062.0,4.69,-11.01,-2.71,0,*41
1499803595.14,11113,19.75,74060.8,4.69,-10.09,-2.15,0,*4B
1499803596.36,11114,19.75,74064.5,4.69,-9.15,-1.67,0,*7F
1499803597.55,11115,19.75,74062.3,4.69,-8.21,-1.21,0,*7A
1499803598.76,11116,19.75,74064.0,4.69,-7.53,-1.09,0,*79
1499803599.98,11117,19.75,74060.0,4.69,-6.55,-1.05,0,*73
1499803601.19,11118,19.75,74060.5,4.69,-5.89,-1.21,0,*78
1499803602.41,11119,19.75,74060.5,4.69,-5.27,-1.67,0,*7F
1499803603.64,11120,19.75,74062.3,4.69,-4.69,-1.95,0,*73
1499803604.83,11121,19.75,74062.3,4.69,-4.09,-2.35,0,*7D
1499803606.07,11122,19.75,74060.0,4.69,-3.67,-2.55,0,*77
1499803607.26,11123,19.75,74062.0,4.69,-3.31,-2.95,0,*79
1499803608.44,11124,19.75,74060.5,4.73,-2.91,-3.19,0,*7B
1499803609.68,11125,19.75,74062.0,4.73,-2.63,-3.51,0,*7B
1499803610.86,11126,19.75,74056.5,4.73,-2.39,-3.79,0,*7D
1499803612.1,11127,19.75,74060.3,4.69,-1.83,-4.01,0,*7D
1499803613.31,11128,19.69,74056.5,4.73,-1.75,-4.73,0,*75
1499803614.52,11129,19.75,74062.5,4.73,-2.15,-5.65,0,*77
1499803615.7,11130,19.75,74066.3,4.73,-2.43,-6.39,0,*76
1499803616.92,11131,19.75,74058.3,4.73,-3.03,-7.31,0,*7B
1499803618.13,11132,19.75,74060.5,4.73,-3.55,-8.25,0,*71
1499803619.32,11133,19.75,74060.3,4.73,-4.21,-8.97,0,*7D
1499803620.55,11134,19.75,74058.8,4.73,-4.73,-9.57,0,*70
1499803621.78,11135,19.75,74058.3,4.73,-5.07,-10.01,0,*48
1499803623.02,11136,19.69,74054.5,4.73,-5.61,-10.71,0,*4C
1499803624.24,11137,19.75,74058.8,4.73,-6.23,-11.15,0,*4B
1499803625.43,11138,19.75,74056.0,4.73,-6.35,-11.23,0,*46
1499803626.65,11139,19.69,74052.8,4.73,-6.77,-11.73,0,*44
1499803627.9,11140,19.75,74056.8,4.73,-7.31,-12.35,0,*48
1499803629.15,11141,19.75,74056.3,4.73,-7.69,-12.71,0,*44
1499803630.34,11142,19.69,74058.0,4.73,-8.17,-13.23,0,*47
1499803631.55,11143,19.75,74064.0,4.73,-8.75,-13.79,0,*4D
1499803632.77,11144,19.75,74062.8,4.73,-9.49,-14.37,0,*49
1499803633.99,11145,19.75,74062.8,4.73,-10.27,-14.93,0,*76
1499803635.22,11146,19.75,74062.5,4.73,-10.89,-15.43,0,*7D
1499803636.45,11147,19.75,74062.3,4.73,-11.59,-15.71,0,*71
1499803637.65,11148,19.75,74064.0,4.73,-12.25,-15.99,0,*70
1499803638.87,11149,19.75,74064.0,4.73,-12.83,-15.99,0,*7D
1499803640.1,11150,19.75,74060.8,4.73,-13.43,-16.09,0,*72
1499803641.32,11151,19.75,74062.8,4.73,-13.69,-15.85,0,*7C
1499803642.55,11152,19.75,74058.5,4.73,-13.97,-15.67,0,*72
1499803643.81,11153,19.75,74060.3,4.73,-14.05,-15.57,0,*7C
1499803645.07,11154,19.75,74066.5,4.73,-13.83,-15.39,0,*7A
1499803646.33,11155,19.69,74064.0,4.73,-13.97,-15.39,0,*7E
1499803647.57,11156,19.75,74070.3,4.73,-14.11,-15.43,0,*79
1499803648.76,11157,19.69,74064.0,4.73,-13.93,-15.67,0,*73
1499803649.96,11158,19.69,74064.0,4.73,-14.11,-15.99,0,*70
1499803651.19,11159,19.75,74066.8,4.73,-14.37,-16.17,0,*70
1499803652.42,11160,19.69,74064.8,4.73,-14.51,-16.41,0,*79
1499803653.62,11161,19.75,74068.5,4.73,-14.65,-16.55,0,*7A
1499803654.87,11162,19.75,74066.8,4.69,-14.75,-17.03,0,*71
1499803656.12,11163,19.75,74068.5,4.69,-14.83,-17.25,0,*7D
1499803657.34,11164,19.75,74068.5,4.67,-15.15,-17.73,0,*79
1499803658.6,11165,19.75,74068.0,4.67,-15.15,-18.01,0,*72
1499803659.82,11166,19.75,74068.8,4.67,-15.53,-18.21,0,*71
1499803661.1,11167,19.69,74070.5,4.67,-15.81,-18.31,0,*7E
1499803662.39,11168,19.69,74064.8,4.67,-16.09,-18.31,0,*72
1499803663.64,11169,19.75,74068.5,4.67,-16.65,-18.21,0,*78
1499803664.89,11170,19.69,74066.8,4.67,-16.97,-17.97,0,*7F
1499803666.17,11171,19.69,74064.0,4.67,-17.25,-17.45,0,*79
1499803667.42,11172,19.75,74060.8,4.67,-17.69,-17.25,0,*74
1499803668.64,11173,19.69,74056.3,4.65,-17.79,-16.83,0,*7B
1499803669.85,11174,19.75,74056.3,4.65,-17.93,-16.45,0,*72
1499803671.07,11175,19.75,74062.0,4.65,-17.93,-15.99,0,*71
1499803672.28,11176,19.75,74056.3,4.65,-18.17,-15.53,0,*77
1499803673.53,11177,19.75,74052.8,4.63,-18.17,-14.79,0,*79
1499803674.72,11178,19.75,74052.0,4.65,-18.25,-14.33,0,*7F
1499803675.94,11179,19.69,74050.3,4.65,-18.35,-13.93,0,*72
1499803677.17,11180,19.75,74052.5,4.63,-18.07,-13.19,0,*71
1499803678.43,11181,19.69,74048.3,4.63,-17.59,-12.47,0,*7E
1499803679.68,11182,19.75,74048.5,4.65,-17.17,-11.93,0,*7B
1499803680.96,11183,19.75,74046.5,4.63,-16.69,-11.37,0,*7A
1499803682.21,11184,19.75,74046.5,4.63,-16.09,-10.85,0,*73
1499803683.49,11185,19.75,74044.0,4.63,-15.43,-10.67,0,*73
1499803684.74,11186,19.75,74046.8,4.63,-14.79,-10.53,0,*7F
1499803685.97,11187,19.75,74042.8,4.63,-14.33,-10.31,0,*74
1499803687.21,11188,19.75,74042.3,4.63,-13.69,-10.15,0,*75
1499803688.43,11189,19.75,74042.8,4.63,-13.19,-9.75,0,*4D
1499803689.67,11190,19.75,74040.5,4.65,-12.65,-9.49,0,*46
1499803690.89,11191,19.75,74042.8,4.65,-11.93,-9.19,0,*48
1499803692.09,11192,19.75,74040.8,4.65,-11.41,-9.01,0,*4D
1499803693.31,11193,19.75,74042.0,4.63,-10.85,-8.93,0,*49
1499803694.53,11194,19.75,74042.3,4.63,-10.27,-8.93,0,*46
1499803695.73,11195,19.75,74046.5,4.63,-9.89,-9.23,0,*71
1499803696.99,11196,19.69,74044.8,4.63,-9.49,-9.57,0,*7D
1499803698.19,11197,19.69,74044.5,4.65,-9.23,-10.19,0,*44
1499803699.42,11198,19.75,74050.8,4.63,-8.89,-10.89,0,*45
1499803700.66,11199,19.69,74048.5,4.63,-8.67,-11.37,0,*40
1499803701.91,11200,19.75,74052.0,4.63,-8.25,-11.81,0,*48
1499803703.13,11201,19.69,74052.8,4.63,-8.41,-12.21,0,*42